SCP
0 0 0 0 0 0 0 0 0 0 0 0 0 0 0 0 0 0 0 0 0 0 0 0 0 0 0 0 0 0 0 0 0 0 0 0 0 0 0 0 0 0 0 0 0 0 0 0 0 0 0 -0 0 0
0 0 0 0 0 0 0 0 0 0 0 0 0 0 0 0 0 0 0 0 0 0 0 0 0 0 0 0 0 0 0 0 0 0 0 0 0 0 0 0 0 0 0 0 0 0 0 0 -0 -0 0 -0 -0 0
0 0 0 0 0 0 0 0 0 0 0 0 0 0 0 0 0 0 0 0 0 0 0 0 0 0 0 0 0 0 0 0 0 0 0 0 0 0 0 0 0 0 0 0 0 0 0 0 0 0 0 0 0 0
0 0 0 0 0 0 0 0 0 0 0 0 0 0 0 0 0 0 0 0 0 0 0 0 0 -0 0 0 0 0 0 -0 -0 0 0 0 0 0 0 0 0 0 0 0 0 0 0 0 0 0 0 0 -0 -0
0 0 0 0 0 0 0 0 0 0 0 0 0 0 0 0 0 0 0 0 0 0 0 0 -0 0 0 0 0 0 0 -0 0 0 0 0 0 0 0 0 0 0 0 0 0 0 0 0 -0 -0 -0 0 0 0
0 0 0 0 0 0 0 0 0 0 0 0 0 0 0 0 0 0 0 0 0 0 0 0 0 0 0 0 0 0 0 0 0 0 0 0 0 0 0 0 0 0 -0 0 0 0 0 0 -0 0 0 -0 -0 -0
0 0 0 0 0 0 0 0 0 0 0 0 0 0 0 0 0 0 0 0 0 0 0 0 0 0 0 0 0 0 0 0 0 0 0 0 0 0 0 0 0 0 0 0 0 0 0 0 0 -0 -0 0 -0 -0
0 0 0 0 0 0 0 0 0 0 0 0 0 0 0 0 0 0 0 0 0 0 0 0 0 0 0 0 0 0 0 0 0 0 0 0 0 0 0 -0 0 -0 0 0 -0 0 0 0 -0 -0 -0 -0 -0 -0
0 0 0 0 0 0 0 0 0 0 0 0 0 0 0 0 0 0 0 0 0 0 0 0 0 0 0 0 0 0 0 0 0 0 0 0 0 0 0 0 0 0 0 0 0 0 0 0 0 -0 -0 -0 -0 0
0 0 0 0 0 0 0 0 0 0 0 0 0 0 0 0 0 0 0 0 0 0 0 0 0 0 0 0 0 0 0 -0 -0 0 0 0 0 0 0 0 0 0 0 0 0 0 0 -0 0 -0 -0 0 0 0
0 0 0 0 0 0 0 0 0 0 0 0 0 0 0 0 0 0 0 0 0 0 0 0 0 0 0 0 0 -0 -0 -0 -0 0 -0 0 0 -0 -0 -0 -0 0 0 0 0 -0 0 0 -0 -0 -0 -0 -0 0
0 0 0 0 0 0 0 0 0 0 0 0 0 0 0 0 0 0 0 0 0 0 0 0 0 0 0 -0 -0 -0 -0 -0 -0 -0 0 0 0 -0 -0 -0 0 0 0 0 0 0 0 -0 -0 0 -0 -0 0 0
0 0 0 0 0 0 0 0 0 0 0 0 0 0 0 0 0 0 0 0 0 0 0 0 0 0 -0 -0 -0 -0 -0 -0 -0 0 0 0 -0 -0 -0 -0 0 0 0 0 0 0 0 -0 0 -0 -0 -0 0 0
0 0 0 0 0 0 0 0 0 0 0 0 0 0 0 0 0 0 0 0 0 0 0 0 0 -0 -0 -0 -0 -0 -0 -0 -0 -0 0 0 -0 -0 -0 -0 -0 0 0 0 0 0 0 0 0 0 0 0 0 0
0 0 0 0 0 -0 -0 0 0 0 0 0 0 0 0 0 0 0 0 0 0 0 0 0 0 -0 -0 -0 -0 -0 -0 -0 -0 0 0 -0 -0 -0 -0 -0 0 0 0 0 0 0 0 0 0 -0 -0 0 0 0
0 0 0 0 -0 -0 0 0 0 0 0 0 0 0 0 0 0 0 0 0 0 0 0 0 0 0 -0 0 -0 0 -0 -0 -0 -0 -0 -0 -0 -0 -0 -0 0 0 0 0 0 0 0 0 0 -0 -0 0 -0 0
0 0 -0 -0 -0 -0 0 0 0 0 0 0 0 0 0 0 0 0 0 0 0 0 0 0 0 0 0 0 0 -0 -0 -0 -0 -0 0 -0 -0 -0 -0 -0 -0 -0 0 0 -0 0 0 0 0 0 -0 0 0 0
0 -0 -0 -0 -0 0 0 0 0 0 0 0 0 0 0 0 0 0 0 0 0 0 0 0 0 0 0 0 0 -0 -0 -0 -0 0 0 -0 -0 -0 -0 -0 -0 -0 0 0 0 0 0 0 0 0 0 -0 0 0
-0 -0 -0 -0 0 0 0 0 0 0 0 0 0 0 0 0 0 0 0 0 0 0 0 0 0 0 0 0 0 -0 -0 -0 -0 0 0 0 0 -0 -0 -0 -0 -0 -0 -0 0 0 0 0 -0 0 0 0 0 0
-0 -0 -0 0 0 0 0 0 0 0 0 0 0 0 0 0 0 0 0 0 0 0 0 0 0 0 0 0 -0 -0 -0 -0 -0 0 0 0 0 0 -0 0 0 -0 -0 0 0 0 0 0 0 0 0 0 0 0
-0 0 0 0 0 0 0 0 0 0 0 0 0 0 0 0 0 0 0 0 0 0 0 0 0 0 0 0 0 0 -0 -0 -0 0 0 0 0 0 0 0 0 0 0 0 0 -0 0 0 0 0 -0 -0 -0 0
0 0 0 0 0 0 0 0 0 0 0 0 0 0 0 0 0 0 0 0 0 0 0 0 0 0 0 0 0 0 0 0 0 0 0 0 0 0 0 0 0 0 0 0 0 -0 -0 0 0 0 -0 -0 -0 -0
0 0 0 0 0 0 0 0 0 0 0 0 0 0 0 0 0 0 0 0 0 0 0 0 0 0 0 0 0 0 0 0 0 0 0 0 0 0 0 0 0 0 0 0 0 0 0 -0 -0 -0 0 -0 -0 -0
0 0 0 0 0 0 0 0 0 0 0 0 0 0 0 0 0 0 0 0 0 0 0 0 0 0 0 0 0 0 0 0 0 0 0 0 0 0 0 0 0 0 0 0 0 0 0 0 -0 -0 -0 -0 -0 -0
0 0 0 0 0 0 0 0 0 0 0 0 0 0 0 0 0 0 0 0 0 0 0 0 0 0 0 0 0 0 0 0 0 0 0 0 0 -0 -0 -0 0 0 0 0 0 0 0 0 0 0 -0 -0 -0 0
0 0 0 0 0 0 0 0 0 0 0 0 0 0 0 0 0 0 0 0 0 0 0 0 0 0 0 0 0 0 0 0 0 0 0 0 0 0 0 0 0 0 0 0 0 0 0 0 0 0 0 -0 -0 -0
0 0 0 0 0 0 0 0 0 0 0 0 0 0 0 0 0 0 0 0 0 0 0 0 0 0 0 0 0 0 0 0 0 0 0 0 0 0 0 0 0 0 0 0 0 0 0 0 0 0 0 0 0 0
0 0 0 0 0 0 0 0 0 0 0 0 0 0 0 0 0 0 0 0 0 0 0 0 0 0 0 0 0 0 0 0 0 0 0 0 0 0 0 -0 -0 -0 -0 -0 -0 0 0 0 0 0 0 0 0 0
0 0 0 0 0 0 0 0 0 0 0 0 0 0 0 0 0 0 0 0 0 0 0 0 0 0 0 0 0 0 0 0 0 0 0 0 0 0 0 -0 -0 -0 -0 -0 -0 -0 0 -0 0 0 0 0 0 0
0 0 0 0 0 0 0 0 0 0 0 0 0 0 0 0 0 0 0 0 0 0 0 0 0 0 0 0 0 0 0 0 0 0 0 0 0 0 0 0 0 -0 -0 0 0 0 -0 -0 -0 -0 0 0 0 0
0 0 0 0 0 0 0 0 0 0 0 0 0 0 0 0 0 0 0 0 0 0 0 0 0 0 0 0 0 0 0 0 0 0 0 0 0 0 0 0 -0 -0 -0 -0 -0 -0 -0 -0 -0 0 0 0 0 0
0 0 0 0 0 0 0 0 0 0 0 0 0 0 0 0 0 0 0 0 0 0 0 0 0 0 0 0 0 0 0 0 0 0 0 0 0 0 0 0 0 0 0 -0 -0 -0 -0 -0 -0 -0 0 0 0 0
0 0 0 0 0 0 0 0 0 0 0 0 0 0 0 0 0 0 0 0 0 0 0 0 0 0 0 0 0 0 0 0 0 0 0 0 0 0 0 0 0 0 0 0 0 0 0 0 0 0 0 0 0 0
Wind_Speed_500mb
61 62 57 60 58 55 46 36 37 40 36 26 28 28 30 31 32 20 17 12 8 11 30 16 13 17 12 11 6 6 9 4 5 3 4 4 4 6 7 6 7 4 5 6 6 10 14 9 6 10 25 55 57 53
60 59 59 65 65 60 59 45 39 38 35 28 29 27 28 28 28 19 17 14 13 20 26 48 32 28 32 28 10 7 6 4 3 2 1 3 4 4 7 6 5 6 8 4 10 10 15 23 33 50 50 54 58 48
65 61 57 65 63 57 60 53 43 38 32 32 27 30 27 25 23 18 21 16 17 16 24 10 3 9 20 17 23 12 7 6 5 5 3 3 7 3 5 7 9 7 5 11 12 13 25 38 57 56 54 62 64 54
68 63 57 62 65 58 63 58 47 45 37 30 28 31 28 25 21 19 20 12 8 10 8 9 7 11 6 7 18 31 26 4 6 8 7 4 5 7 6 12 19 19 12 13 23 34 34 33 45 52 58 57 63 60
59 69 66 62 67 70 67 64 49 50 45 31 27 33 26 24 20 20 16 9 14 11 8 19 20 7 6 18 17 23 38 37 19 8 5 5 6 8 7 7 8 4 6 4 8 38 41 44 62 68 57 71 73 68
51 57 76 72 74 73 66 63 53 44 42 33 29 32 23 22 18 13 5 11 4 2 7 7 13 6 17 23 8 18 30 25 19 9 9 9 10 10 4 6 2 38 58 51 35 48 56 69 58 60 78 77 59 57
50 49 76 73 70 70 63 58 51 42 41 32 31 31 22 20 16 11 7 6 3 2 4 9 10 8 20 13 6 1 17 14 16 8 10 8 8 16 3 4 39 69 68 67 32 41 47 51 64 83 72 56 55 50
52 52 59 77 68 62 56 47 43 38 39 30 33 30 17 17 18 17 20 17 9 7 4 5 8 11 17 10 4 5 10 17 18 9 8 4 3 3 4 35 65 75 68 29 37 40 50 56 78 72 61 54 50 46
54 52 54 66 61 52 49 40 37 33 39 29 30 11 10 12 12 11 6 2 13 4 6 4 6 6 16 9 8 6 8 6 7 4 4 4 2 7 18 42 61 72 50 46 48 43 41 56 70 61 57 47 48 48
51 49 48 52 62 47 38 36 32 38 36 33 12 9 9 11 17 12 12 8 12 8 7 7 7 6 7 6 6 7 4 3 4 4 11 2 4 20 46 64 56 60 60 53 51 52 52 66 65 62 56 51 47 48
48 43 41 47 51 38 35 29 42 38 30 20 13 9 12 24 16 8 6 7 8 5 9 10 13 9 8 6 5 8 4 3 4 3 2 3 5 33 73 72 76 72 64 59 44 40 49 57 64 66 67 56 50 51
45 40 41 52 49 40 33 40 35 27 17 21 12 17 16 10 5 6 6 7 7 5 9 8 9 13 7 5 7 7 4 3 2 6 2 3 9 59 70 77 81 74 73 74 55 39 52 63 65 59 61 64 54 45
41 39 45 51 41 32 41 38 26 22 31 17 11 10 9 9 8 9 12 6 5 8 9 6 4 3 4 5 9 3 5 3 7 5 4 4 39 63 73 77 85 67 73 69 59 40 56 67 61 55 56 56 51 53
41 37 41 42 40 40 41 33 21 37 22 11 12 9 9 8 8 7 6 6 5 5 2 5 1 1 3 3 3 3 3 3 3 6 6 14 54 67 71 78 73 76 73 65 55 38 47 54 46 49 59 55 56 52
39 37 51 47 34 45 38 29 32 41 13 8 8 8 11 5 5 12 14 10 4 4 3 3 4 2 3 2 5 4 4 5 5 5 10 42 59 59 68 75 75 73 69 66 49 41 48 62 62 67 74 68 61 56
42 50 49 37 48 45 38 34 45 25 6 8 8 4 4 9 7 9 9 6 1 5 6 4 3 3 5 3 5 6 4 4 5 12 36 46 49 56 66 69 67 62 51 55 43 36 43 57 59 64 70 75 65 59
69 49 50 56 47 39 36 50 24 12 10 7 6 11 8 9 11 9 8 3 5 2 2 2 3 2 3 5 3 2 3 9 26 28 33 37 45 55 58 60 63 56 50 45 45 38 41 46 60 68 78 83 89 71
60 50 60 58 49 54 49 14 12 11 10 10 8 14 12 15 18 11 6 1 5 6 4 4 7 3 4 4 4 2 7 19 18 22 30 34 39 46 48 50 54 57 48 39 42 39 45 51 61 64 69 75 79 88
57 54 62 54 52 36 16 17 10 9 8 8 11 24 18 21 18 12 11 11 14 17 18 6 5 4 5 4 4 2 11 13 20 30 28 31 34 39 42 45 47 53 53 45 42 42 39 43 46 54 60 68 78 84
43 56 53 60 40 12 10 7 13 8 9 12 20 19 17 14 18 16 16 14 14 7 7 4 4 8 11 8 2 7 12 12 16 20 25 31 37 40 40 42 44 50 50 48 42 39 41 42 45 44 46 57 62 68
55 62 69 40 13 8 7 11 10 8 14 9 24 17 13 21 10 7 9 11 7 4 5 7 20 16 12 9 4 13 10 9 16 20 25 32 33 33 35 37 40 44 47 51 48 48 44 42 38 39 41 43 51 49
68 69 50 14 7 5 5 8 9 15 8 16 20 12 12 8 9 6 12 6 5 6 12 22 20 16 13 5 10 16 12 10 12 17 21 24 27 31 35 35 38 42 44 45 48 47 42 34 31 30 37 38 40 43
73 49 17 7 5 5 4 14 6 10 8 15 12 9 6 7 8 16 6 5 6 23 28 24 20 14 12 6 11 12 12 12 14 20 23 22 21 25 27 28 31 39 43 39 38 39 40 33 27 25 29 27 32 37
41 10 8 10 9 6 9 7 7 8 8 7 7 8 7 9 16 3 5 7 21 33 26 23 18 17 11 5 9 13 11 9 11 17 27 27 26 31 32 28 29 38 45 42 38 34 35 35 29 23 25 23 24 30
11 8 10 6 8 7 7 8 6 4 5 7 8 6 7 11 5 6 6 14 34 33 32 28 21 14 12 8 7 12 14 11 13 18 23 30 33 32 35 34 34 40 48 51 54 51 42 34 31 28 20 19 17 17
6 12 12 14 8 8 9 8 10 8 7 6 5 12 10 6 7 6 6 23 38 47 42 36 29 22 18 12 10 10 13 13 11 14 20 25 35 38 40 43 45 45 49 51 52 54 54 48 38 28 22 16 10 8
6 7 8 8 8 11 6 4 6 4 7 8 9 8 7 8 9 5 5 24 43 46 36 31 25 22 20 15 12 13 13 13 11 10 19 22 26 33 36 40 43 45 46 47 50 51 52 53 49 39 28 14 10 4
2 5 8 15 6 6 4 5 7 10 7 12 18 9 13 5 4 8 9 25 38 39 39 34 25 19 18 14 11 13 13 15 14 8 10 18 21 29 31 34 35 37 40 42 45 48 50 50 50 45 36 22 13 7
4 8 11 11 8 6 6 7 6 4 10 16 7 6 7 6 14 15 29 39 39 35 40 35 29 26 20 13 9 11 14 16 16 17 19 23 27 32 35 38 39 40 41 41 41 43 45 45 45 44 39 31 20 16
8 16 7 13 8 8 2 2 6 10 14 18 18 17 16 18 21 33 37 36 35 35 31 25 26 29 20 11 6 7 10 14 18 21 24 28 31 34 36 38 40 41 42 43 45 46 45 45 44 43 40 34 23 17
14 16 7 6 5 3 9 19 14 20 16 15 17 20 21 21 30 31 31 29 27 26 25 27 33 28 18 8 3 4 7 11 16 21 23 26 28 30 32 34 37 40 42 43 43 44 48 48 48 48 45 41 36 26
12 9 8 5 5 17 20 11 9 7 8 10 8 12 18 11 8 23 29 27 23 22 22 25 25 20 16 13 7 2 3 10 16 19 21 23 26 28 30 32 33 34 36 38 39 40 41 44 46 47 46 45 41 35
10 9 5 9 11 11 12 12 7 8 9 6 7 9 8 8 8 13 28 30 25 17 16 20 19 16 13 12 8 2 4 10 13 17 22 24 26 27 27 27 28 30 31 32 34 34 35 37 40 43 44 44 41 36
Wind_Direction_500mb
255 254 254 253 263 267 257 262 281 290 292 303 306 317 329 330 329 340 324 299 283 271 286 260 258 249 250 229 251 321 298 193 292 22 337 14 299 341 294 283 299 239 229 226 228 245 264 145 214 279 318 304 299 302
248 247 249 253 259 262 265 253 261 274 284 299 296 309 321 328 320 321 321 305 278 275 272 299 287 273 247 236 247 260 289 280 308 323 175 254 295 303 347 295 208 256 224 263 224 248 290 277 280 292 291 289 298 296
252 243 245 253 250 251 257 255 254 258 276 285 290 298 312 320 314 308 307 297 293 286 301 291 242 300 296 247 224 231 243 221 215 232 307 292 267 207 271 256 289 276 267 251 291 271 273 298 299 298 300 299 301 291
252 245 239 247 246 247 255 248 244 249 252 277 283 294 306 310 312 304 297 305 268 287 287 262 283 328 351 248 249 238 230 246 258 268 264 244 247 222 256 280 281 282 296 258 270 286 310 289 302 305 307 305 303 293
253 245 237 234 242 247 250 252 242 248 245 261 277 286 304 305 306 304 290 258 247 247 290 289 311 200 324 319 287 247 237 238 267 283 216 232 228 253 250 272 261 266 267 270 276 288 284 287 309 308 312 314 307 302
256 251 241 235 243 245 249 258 249 246 238 250 267 279 294 296 300 303 248 231 225 202 274 294 307 254 324 335 286 253 232 215 216 234 248 230 233 199 254 249 299 352 326 305 288 291 288 297 317 323 315 314 309 306
260 256 244 244 249 243 247 257 251 244 238 247 267 274 276 284 272 236 227 192 217 290 276 289 289 288 332 340 333 208 191 196 204 228 238 243 241 204 262 289 331 322 321 322 340 325 322 328 327 317 316 314 312 311
260 251 255 242 247 245 248 248 248 238 237 253 270 269 280 267 260 259 231 241 247 255 246 289 285 306 350 317 327 207 192 203 209 243 234 210 22 318 297 331 326 319 324 324 322 334 323 324 320 319 320 319 321 310
255 249 251 246 247 252 246 241 241 229 235 260 269 266 240 203 191 159 206 181 224 214 312 272 295 313 334 316 293 283 237 200 202 235 210 114 68 49 317 320 321 321 320 306 325 328 326 321 321 329 332 334 329 328
248 245 243 247 238 246 237 242 219 223 232 259 212 196 214 181 156 160 163 177 189 214 225 249 254 275 313 306 300 293 256 244 241 204 111 106 115 360 340 333 332 334 341 338 334 332 334 335 335 336 338 335 333 330
238 233 233 242 232 238 228 215 210 214 236 205 171 209 177 158 163 175 201 217 165 216 215 237 234 269 272 261 295 276 305 239 254 75 219 92 2 347 339 341 346 354 351 344 337 327 338 340 340 340 340 343 349 349
228 221 228 234 222 220 215 204 201 225 214 156 173 145 151 174 165 195 195 183 215 233 203 217 247 228 282 247 255 251 278 283 280 302 99 51 7 342 339 341 343 352 358 348 347 342 350 351 351 347 349 355 357 355
210 213 224 222 207 213 190 204 196 220 151 158 187 167 171 168 193 206 183 179 206 199 209 229 283 245 269 271 268 303 298 337 314 33 55 60 342 336 338 339 345 359 358 355 354 359 0 356 357 354 351 359 5 10
200 206 214 198 199 188 196 188 203 158 161 179 170 180 215 181 225 192 171 138 155 187 276 290 260 304 347 272 310 278 334 308 49 34 24 352 336 332 334 341 344 348 352 354 351 359 6 359 357 10 11 11 20 14
188 186 195 186 193 181 194 188 175 165 166 197 189 206 202 203 115 141 131 127 134 338 306 135 113 74 27 353 16 328 23 65 37 8 328 329 328 333 334 341 348 351 354 357 352 360 7 11 13 23 20 24 23 24
183 185 180 182 171 185 183 178 157 177 205 209 224 195 153 144 129 132 141 129 51 7 100 103 113 106 56 24 47 30 337 33 360 333 325 325 329 336 338 346 355 357 359 2 358 0 9 16 15 19 26 30 28 29
179 165 166 164 180 172 174 144 159 194 201 209 224 198 174 132 132 132 141 154 312 132 115 129 91 80 119 62 82 44 25 332 327 324 326 335 339 343 344 351 7 7 6 4 6 15 11 23 26 26 27 27 29 32
171 170 164 169 162 151 141 150 172 187 207 205 183 168 154 128 130 128 126 180 134 115 100 94 117 105 76 123 149 33 332 325 318 326 334 342 346 351 351 356 10 16 15 12 16 24 22 24 29 32 24 23 25 28
173 167 167 164 160 128 146 184 185 196 200 163 151 144 134 124 112 116 117 113 127 115 113 90 94 104 134 124 109 358 323 323 322 334 340 347 346 344 351 1 9 17 21 21 19 30 33 23 27 27 24 22 24 23
165 159 155 146 133 125 132 145 174 176 173 160 145 133 128 124 119 104 141 129 121 87 71 68 97 128 131 135 142 324 326 336 345 347 354 355 356 355 356 2 7 13 20 25 26 25 33 38 29 24 22 19 21 19
153 156 144 139 119 123 134 153 155 160 145 135 146 128 114 131 120 125 109 121 81 70 116 128 132 129 125 129 17 352 350 349 353 348 347 352 355 357 1 5 9 11 18 22 23 23 23 24 28 22 17 16 13 16
147 147 145 108 95 102 114 149 129 137 128 143 138 126 128 138 140 134 133 83 97 141 146 145 143 137 136 121 2 357 16 33 18 14 359 357 359 0 1 1 4 7 13 16 20 18 17 15 18 21 14 19 18 18
143 139 104 109 110 202 120 150 137 158 134 159 137 114 120 124 139 141 92 110 139 151 147 143 144 141 130 94 17 20 50 48 28 11 10 7 8 6 5 8 4 5 4 10 15 13 15 14 10 13 18 27 25 22
122 107 133 163 186 161 153 163 155 128 107 158 147 115 131 131 154 154 132 157 164 162 162 163 166 155 144 100 38 35 43 58 38 21 24 25 23 22 23 18 13 12 13 10 11 10 10 14 19 20 20 24 24 25
112 156 149 179 183 147 155 147 154 164 133 151 128 133 151 151 150 187 188 181 173 174 172 171 173 171 156 132 63 37 36 46 34 30 25 26 25 26 27 27 23 14 13 14 15 14 12 7 8 17 28 17 19 26
138 187 174 179 159 179 163 152 176 158 139 140 116 124 152 145 172 210 196 182 177 177 176 178 174 161 150 131 101 63 40 35 34 24 20 22 21 20 19 17 15 15 14 14 9 8 8 7 5 358 1 20 34 27
127 191 190 170 154 140 135 109 126 153 162 158 152 153 161 171 210 148 182 171 177 177 176 170 162 161 151 127 89 58 39 29 22 29 25 24 18 17 17 14 12 9 9 9 8 6 5 4 1 359 348 349 356 18
174 156 160 166 129 130 140 163 164 187 172 153 149 171 170 176 125 150 148 162 163 159 159 157 155 156 152 130 90 55 42 38 30 8 350 12 12 16 18 17 12 7 10 8 5 5 4 1 359 358 355 342 324 302
176 157 114 108 105 217 240 205 210 140 136 162 128 117 114 98 137 142 149 154 162 163 164 166 163 166 160 141 96 60 53 51 48 40 32 23 16 12 11 9 9 8 5 5 6 4 3 0 360 359 354 350 332 300
159 151 119 164 178 213 135 139 129 146 131 139 121 111 98 105 125 137 146 156 165 167 168 172 177 175 169 157 113 66 49 39 34 32 26 18 11 5 2 1 1 2 4 2 0 359 360 1 360 0 0 357 340 304
152 170 169 155 182 96 133 133 118 117 103 85 103 116 119 122 133 144 153 157 161 164 170 172 172 175 180 176 144 82 41 26 17 13 10 5 0 358 357 356 356 356 357 360 1 359 357 358 360 358 358 357 356 338
170 178 187 132 105 147 143 133 112 96 87 88 90 119 118 104 106 160 166 163 162 162 163 169 176 181 182 184 184 170 13 7 360 357 356 356 355 353 352 351 352 353 354 356 358 359 359 358 360 1 359 358 356 353
168 189 141 120 142 184 166 121 98 90 85 97 104 118 92 103 120 158 171 173 170 167 170 173 174 175 171 161 163 175 337 344 349 350 348 348 348 347 347 348 349 351 353 354 356 359 1 3 5 6 7 6 4 5
Wind_Speed_850mb
61 62 57 60 58 55 46 36 37 40 36 26 28 28 30 31 32 20 17 12 8 11 30 16 13 17 12 11 6 6 9 4 5 3 4 4 4 6 7 6 7 4 5 6 6 10 14 9 6 10 25 55 57 53
60 59 59 65 65 60 59 45 39 38 35 28 29 27 28 28 28 19 17 14 13 20 26 48 32 28 32 28 10 7 6 4 3 2 1 3 4 4 7 6 5 6 8 4 10 10 15 23 33 50 50 54 58 48
65 61 57 65 63 57 60 53 43 38 32 32 27 30 27 25 23 18 21 16 17 16 24 10 3 9 20 17 23 12 7 6 5 5 3 3 7 3 5 7 9 7 5 11 12 13 25 38 57 56 54 62 64 54
68 63 57 62 65 58 63 58 47 45 37 30 28 31 28 25 21 19 20 12 8 10 8 9 7 11 6 7 18 31 26 4 6 8 7 4 5 7 6 12 19 19 12 13 23 34 34 33 45 52 58 57 63 60
59 69 66 62 67 70 67 64 49 50 45 31 27 33 26 24 20 20 16 9 14 11 8 19 20 7 6 18 17 23 38 37 19 8 5 5 6 8 7 7 8 4 6 4 8 38 41 44 62 68 57 71 73 68
51 57 76 72 74 73 66 63 53 44 42 33 29 32 23 22 18 13 5 11 4 2 7 7 13 6 17 23 8 18 30 25 19 9 9 9 10 10 4 6 2 38 58 51 35 48 56 69 58 60 78 77 59 57
50 49 76 73 70 70 63 58 51 42 41 32 31 31 22 20 16 11 7 6 3 2 4 9 10 8 20 13 6 1 17 14 16 8 10 8 8 16 3 4 39 69 68 67 32 41 47 51 64 83 72 56 55 50
52 52 59 77 68 62 56 47 43 38 39 30 33 30 17 17 18 17 20 17 9 7 4 5 8 11 17 10 4 5 10 17 18 9 8 4 3 3 4 35 65 75 68 29 37 40 50 56 78 72 61 54 50 46
54 52 54 66 61 52 49 40 37 33 39 29 30 11 10 12 12 11 6 2 13 4 6 4 6 6 16 9 8 6 8 6 7 4 4 4 2 7 18 42 61 72 50 46 48 43 41 56 70 61 57 47 48 48
51 49 48 52 62 47 38 36 32 38 36 33 12 9 9 11 17 12 12 8 12 8 7 7 7 6 7 6 6 7 4 3 4 4 11 2 4 20 46 64 56 60 60 53 51 52 52 66 65 62 56 51 47 48
48 43 41 47 51 38 35 29 42 38 30 20 13 9 12 24 16 8 6 7 8 5 9 10 13 9 8 6 5 8 4 3 4 3 2 3 5 33 73 72 76 72 64 59 44 40 49 57 64 66 67 56 50 51
45 40 41 52 49 40 33 40 35 27 17 21 12 17 16 10 5 6 6 7 7 5 9 8 9 13 7 5 7 7 4 3 2 6 2 3 9 59 70 77 81 74 73 74 55 39 52 63 65 59 61 64 54 45
41 39 45 51 41 32 41 38 26 22 31 17 11 10 9 9 8 9 12 6 5 8 9 6 4 3 4 5 9 3 5 3 7 5 4 4 39 63 73 77 85 67 73 69 59 40 56 67 61 55 56 56 51 53
41 37 41 42 40 40 41 33 21 37 22 11 12 9 9 8 8 7 6 6 5 5 2 5 1 1 3 3 3 3 3 3 3 6 6 14 54 67 71 78 73 76 73 65 55 38 47 54 46 49 59 55 56 52
39 37 51 47 34 45 38 29 32 41 13 8 8 8 11 5 5 12 14 10 4 4 3 3 4 2 3 2 5 4 4 5 5 5 10 42 59 59 68 75 75 73 69 66 49 41 48 62 62 67 74 68 61 56
42 50 49 37 48 45 38 34 45 25 6 8 8 4 4 9 7 9 9 6 1 5 6 4 3 3 5 3 5 6 4 4 5 12 36 46 49 56 66 69 67 62 51 55 43 36 43 57 59 64 70 75 65 59
69 49 50 56 47 39 36 50 24 12 10 7 6 11 8 9 11 9 8 3 5 2 2 2 3 2 3 5 3 2 3 9 26 28 33 37 45 55 58 60 63 56 50 45 45 38 41 46 60 68 78 83 89 71
60 50 60 58 49 54 49 14 12 11 10 10 8 14 12 15 18 11 6 1 5 6 4 4 7 3 4 4 4 2 7 19 18 22 30 34 39 46 48 50 54 57 48 39 42 39 45 51 61 64 69 75 79 88
57 54 62 54 52 36 16 17 10 9 8 8 11 24 18 21 18 12 11 11 14 17 18 6 5 4 5 4 4 2 11 13 20 30 28 31 34 39 42 45 47 53 53 45 42 42 39 43 46 54 60 68 78 84
43 56 53 60 40 12 10 7 13 8 9 12 20 19 17 14 18 16 16 14 14 7 7 4 4 8 11 8 2 7 12 12 16 20 25 31 37 40 40 42 44 50 50 48 42 39 41 42 45 44 46 57 62 68
55 62 69 40 13 8 7 11 10 8 14 9 24 17 13 21 10 7 9 11 7 4 5 7 20 16 12 9 4 13 10 9 16 20 25 32 33 33 35 37 40 44 47 51 48 48 44 42 38 39 41 43 51 49
68 69 50 14 7 5 5 8 9 15 8 16 20 12 12 8 9 6 12 6 5 6 12 22 20 16 13 5 10 16 12 10 12 17 21 24 27 31 35 35 38 42 44 45 48 47 42 34 31 30 37 38 40 43
73 49 17 7 5 5 4 14 6 10 8 15 12 9 6 7 8 16 6 5 6 23 28 24 20 14 12 6 11 12 12 12 14 20 23 22 21 25 27 28 31 39 43 39 38 39 40 33 27 25 29 27 32 37
41 10 8 10 9 6 9 7 7 8 8 7 7 8 7 9 16 3 5 7 21 33 26 23 18 17 11 5 9 13 11 9 11 17 27 27 26 31 32 28 29 38 45 42 38 34 35 35 29 23 25 23 24 30
11 8 10 6 8 7 7 8 6 4 5 7 8 6 7 11 5 6 6 14 34 33 32 28 21 14 12 8 7 12 14 11 13 18 23 30 33 32 35 34 34 40 48 51 54 51 42 34 31 28 20 19 17 17
6 12 12 14 8 8 9 8 10 8 7 6 5 12 10 6 7 6 6 23 38 47 42 36 29 22 18 12 10 10 13 13 11 14 20 25 35 38 40 43 45 45 49 51 52 54 54 48 38 28 22 16 10 8
6 7 8 8 8 11 6 4 6 4 7 8 9 8 7 8 9 5 5 24 43 46 36 31 25 22 20 15 12 13 13 13 11 10 19 22 26 33 36 40 43 45 46 47 50 51 52 53 49 39 28 14 10 4
2 5 8 15 6 6 4 5 7 10 7 12 18 9 13 5 4 8 9 25 38 39 39 34 25 19 18 14 11 13 13 15 14 8 10 18 21 29 31 34 35 37 40 42 45 48 50 50 50 45 36 22 13 7
4 8 11 11 8 6 6 7 6 4 10 16 7 6 7 6 14 15 29 39 39 35 40 35 29 26 20 13 9 11 14 16 16 17 19 23 27 32 35 38 39 40 41 41 41 43 45 45 45 44 39 31 20 16
8 16 7 13 8 8 2 2 6 10 14 18 18 17 16 18 21 33 37 36 35 35 31 25 26 29 20 11 6 7 10 14 18 21 24 28 31 34 36 38 40 41 42 43 45 46 45 45 44 43 40 34 23 17
14 16 7 6 5 3 9 19 14 20 16 15 17 20 21 21 30 31 31 29 27 26 25 27 33 28 18 8 3 4 7 11 16 21 23 26 28 30 32 34 37 40 42 43 43 44 48 48 48 48 45 41 36 26
12 9 8 5 5 17 20 11 9 7 8 10 8 12 18 11 8 23 29 27 23 22 22 25 25 20 16 13 7 2 3 10 16 19 21 23 26 28 30 32 33 34 36 38 39 40 41 44 46 47 46 45 41 35
10 9 5 9 11 11 12 12 7 8 9 6 7 9 8 8 8 13 28 30 25 17 16 20 19 16 13 12 8 2 4 10 13 17 22 24 26 27 27 27 28 30 31 32 34 34 35 37 40 43 44 44 41 36
Wind_Direction_850mb
255 254 254 253 263 267 257 262 281 290 292 303 306 317 329 330 329 340 324 299 283 271 286 260 258 249 250 229 251 321 298 193 292 22 337 14 299 341 294 283 299 239 229 226 228 245 264 145 214 279 318 304 299 302
248 247 249 253 259 262 265 253 261 274 284 299 296 309 321 328 320 321 321 305 278 275 272 299 287 273 247 236 247 260 289 280 308 323 175 254 295 303 347 295 208 256 224 263 224 248 290 277 280 292 291 289 298 296
252 243 245 253 250 251 257 255 254 258 276 285 290 298 312 320 314 308 307 297 293 286 301 291 242 300 296 247 224 231 243 221 215 232 307 292 267 207 271 256 289 276 267 251 291 271 273 298 299 298 300 299 301 291
252 245 239 247 246 247 255 248 244 249 252 277 283 294 306 310 312 304 297 305 268 287 287 262 283 328 351 248 249 238 230 246 258 268 264 244 247 222 256 280 281 282 296 258 270 286 310 289 302 305 307 305 303 293
253 245 237 234 242 247 250 252 242 248 245 261 277 286 304 305 306 304 290 258 247 247 290 289 311 200 324 319 287 247 237 238 267 283 216 232 228 253 250 272 261 266 267 270 276 288 284 287 309 308 312 314 307 302
256 251 241 235 243 245 249 258 249 246 238 250 267 279 294 296 300 303 248 231 225 202 274 294 307 254 324 335 286 253 232 215 216 234 248 230 233 199 254 249 299 352 326 305 288 291 288 297 317 323 315 314 309 306
260 256 244 244 249 243 247 257 251 244 238 247 267 274 276 284 272 236 227 192 217 290 276 289 289 288 332 340 333 208 191 196 204 228 238 243 241 204 262 289 331 322 321 322 340 325 322 328 327 317 316 314 312 311
260 251 255 242 247 245 248 248 248 238 237 253 270 269 280 267 260 259 231 241 247 255 246 289 285 306 350 317 327 207 192 203 209 243 234 210 22 318 297 331 326 319 324 324 322 334 323 324 320 319 320 319 321 310
255 249 251 246 247 252 246 241 241 229 235 260 269 266 240 203 191 159 206 181 224 214 312 272 295 313 334 316 293 283 237 200 202 235 210 114 68 49 317 320 321 321 320 306 325 328 326 321 321 329 332 334 329 328
248 245 243 247 238 246 237 242 219 223 232 259 212 196 214 181 156 160 163 177 189 214 225 249 254 275 313 306 300 293 256 244 241 204 111 106 115 360 340 333 332 334 341 338 334 332 334 335 335 336 338 335 333 330
238 233 233 242 232 238 228 215 210 214 236 205 171 209 177 158 163 175 201 217 165 216 215 237 234 269 272 261 295 276 305 239 254 75 219 92 2 347 339 341 346 354 351 344 337 327 338 340 340 340 340 343 349 349
228 221 228 234 222 220 215 204 201 225 214 156 173 145 151 174 165 195 195 183 215 233 203 217 247 228 282 247 255 251 278 283 280 302 99 51 7 342 339 341 343 352 358 348 347 342 350 351 351 347 349 355 357 355
210 213 224 222 207 213 190 204 196 220 151 158 187 167 171 168 193 206 183 179 206 199 209 229 283 245 269 271 268 303 298 337 314 33 55 60 342 336 338 339 345 359 358 355 354 359 0 356 357 354 351 359 5 10
200 206 214 198 199 188 196 188 203 158 161 179 170 180 215 181 225 192 171 138 155 187 276 290 260 304 347 272 310 278 334 308 49 34 24 352 336 332 334 341 344 348 352 354 351 359 6 359 357 10 11 11 20 14
188 186 195 186 193 181 194 188 175 165 166 197 189 206 202 203 115 141 131 127 134 338 306 135 113 74 27 353 16 328 23 65 37 8 328 329 328 333 334 341 348 351 354 357 352 360 7 11 13 23 20 24 23 24
183 185 180 182 171 185 183 178 157 177 205 209 224 195 153 144 129 132 141 129 51 7 100 103 113 106 56 24 47 30 337 33 360 333 325 325 329 336 338 346 355 357 359 2 358 0 9 16 15 19 26 30 28 29
179 165 166 164 180 172 174 144 159 194 201 209 224 198 174 132 132 132 141 154 312 132 115 129 91 80 119 62 82 44 25 332 327 324 326 335 339 343 344 351 7 7 6 4 6 15 11 23 26 26 27 27 29 32
171 170 164 169 162 151 141 150 172 187 207 205 183 168 154 128 130 128 126 180 134 115 100 94 117 105 76 123 149 33 332 325 318 326 334 342 346 351 351 356 10 16 15 12 16 24 22 24 29 32 24 23 25 28
173 167 167 164 160 128 146 184 185 196 200 163 151 144 134 124 112 116 117 113 127 115 113 90 94 104 134 124 109 358 323 323 322 334 340 347 346 344 351 1 9 17 21 21 19 30 33 23 27 27 24 22 24 23
165 159 155 146 133 125 132 145 174 176 173 160 145 133 128 124 119 104 141 129 121 87 71 68 97 128 131 135 142 324 326 336 345 347 354 355 356 355 356 2 7 13 20 25 26 25 33 38 29 24 22 19 21 19
153 156 144 139 119 123 134 153 155 160 145 135 146 128 114 131 120 125 109 121 81 70 116 128 132 129 125 129 17 352 350 349 353 348 347 352 355 357 1 5 9 11 18 22 23 23 23 24 28 22 17 16 13 16
147 147 145 108 95 102 114 149 129 137 128 143 138 126 128 138 140 134 133 83 97 141 146 145 143 137 136 121 2 357 16 33 18 14 359 357 359 0 1 1 4 7 13 16 20 18 17 15 18 21 14 19 18 18
143 139 104 109 110 202 120 150 137 158 134 159 137 114 120 124 139 141 92 110 139 151 147 143 144 141 130 94 17 20 50 48 28 11 10 7 8 6 5 8 4 5 4 10 15 13 15 14 10 13 18 27 25 22
122 107 133 163 186 161 153 163 155 128 107 158 147 115 131 131 154 154 132 157 164 162 162 163 166 155 144 100 38 35 43 58 38 21 24 25 23 22 23 18 13 12 13 10 11 10 10 14 19 20 20 24 24 25
112 156 149 179 183 147 155 147 154 164 133 151 128 133 151 151 150 187 188 181 173 174 172 171 173 171 156 132 63 37 36 46 34 30 25 26 25 26 27 27 23 14 13 14 15 14 12 7 8 17 28 17 19 26
138 187 174 179 159 179 163 152 176 158 139 140 116 124 152 145 172 210 196 182 177 177 176 178 174 161 150 131 101 63 40 35 34 24 20 22 21 20 19 17 15 15 14 14 9 8 8 7 5 358 1 20 34 27
127 191 190 170 154 140 135 109 126 153 162 158 152 153 161 171 210 148 182 171 177 177 176 170 162 161 151 127 89 58 39 29 22 29 25 24 18 17 17 14 12 9 9 9 8 6 5 4 1 359 348 349 356 18
174 156 160 166 129 130 140 163 164 187 172 153 149 171 170 176 125 150 148 162 163 159 159 157 155 156 152 130 90 55 42 38 30 8 350 12 12 16 18 17 12 7 10 8 5 5 4 1 359 358 355 342 324 302
176 157 114 108 105 217 240 205 210 140 136 162 128 117 114 98 137 142 149 154 162 163 164 166 163 166 160 141 96 60 53 51 48 40 32 23 16 12 11 9 9 8 5 5 6 4 3 0 360 359 354 350 332 300
159 151 119 164 178 213 135 139 129 146 131 139 121 111 98 105 125 137 146 156 165 167 168 172 177 175 169 157 113 66 49 39 34 32 26 18 11 5 2 1 1 2 4 2 0 359 360 1 360 0 0 357 340 304
152 170 169 155 182 96 133 133 118 117 103 85 103 116 119 122 133 144 153 157 161 164 170 172 172 175 180 176 144 82 41 26 17 13 10 5 0 358 357 356 356 356 357 360 1 359 357 358 360 358 358 357 356 338
170 178 187 132 105 147 143 133 112 96 87 88 90 119 118 104 106 160 166 163 162 162 163 169 176 181 182 184 184 170 13 7 360 357 356 356 355 353 352 351 352 353 354 356 358 359 359 358 360 1 359 358 356 353
168 189 141 120 142 184 166 121 98 90 85 97 104 118 92 103 120 158 171 173 170 167 170 173 174 175 171 161 163 175 337 344 349 350 348 348 348 347 347 348 349 351 353 354 356 359 1 3 5 6 7 6 4 5